This is the latest recevied weather packets stored in our database for station/object WC4PEM-14. If no packets are shown the sender has not sent any weather packets the latest 1 day(s).
| Time | Temp. | Humidity | Pressure | Rain* | Wind** | Luminosity | Snow |
|---|---|---|---|---|---|---|---|
| 1777964887 | 19.44° C | 83% | 1014 hPa | 0 mm | 0.89 m/s, 100° | - | - |
| 1777964587 | 19.44° C | 83% | 1014 hPa | 0 mm | 0.89 m/s, 102° | - | - |
| 1777964287 | 19.44° C | 83% | 1014 hPa | 0 mm | 1.34 m/s, 101° | - | - |
| 1777963987 | 19.44° C | 83% | 1014.1 hPa | 0 mm | 1.34 m/s, 93° | - | - |
| 1777963887 | 19.44° C | 83% | 1014.4 hPa | 0 mm | 0.89 m/s, 93° | - | - |
| 1777963687 | 19.44° C | 83% | 1014.1 hPa | 0 mm | 1.34 m/s, 90° | - | - |
| 1777963642 | 19.44° C | 83% | 1014.4 hPa | 0 mm | 0.89 m/s, 93° | - | - |
| 1777963387 | 19.44° C | 83% | 1014.4 hPa | 0 mm | 0.89 m/s, 93° | - | - |
| 1777963094 | 19.44° C | 82% | 1014.5 hPa | 0 mm | 0.89 m/s, 99° | - | - |
| 1777963087 | 19.44° C | 82% | 1014.5 hPa | 0 mm | 0.89 m/s, 93° | - | - |
| 1777962787 | 19.44° C | 82% | 1014.5 hPa | 0 mm | 0.89 m/s, 99° | - | - |
| 1777962487 | 19.44° C | 82% | 1014.4 hPa | 0 mm | 0.89 m/s, 93° | - | - |
| 1777962187 | 19.44° C | 82% | 1014.5 hPa | 0 mm | 0.89 m/s, 100° | - | - |
| 1777962097 | 19.44° C | 82% | 1014.6 hPa | 0 mm | 0.89 m/s, 93° | - | - |
| 1777961887 | 19.44° C | 82% | 1014.6 hPa | 0 mm | 0.89 m/s, 93° | - | - |
| 1777961793 | 19.44° C | 82% | 1014.6 hPa | 0 mm | 0.89 m/s, 99° | - | - |
| 1777961587 | 19.44° C | 82% | 1014.6 hPa | 0 mm | 0.89 m/s, 99° | - | - |
| 1777961297 | 19.44° C | 81% | 1014.7 hPa | 0 mm | 0.89 m/s, 93° | - | - |
| 1777960987 | 20° C | 81% | 1014.7 hPa | 0 mm | 0.89 m/s, 111° | - | - |
| 1777960895 | 19.44° C | 81% | 1014.8 hPa | 0 mm | 0.89 m/s, 93° | - | - |
| 1777960687 | 19.44° C | 81% | 1014.8 hPa | 0 mm | 0.89 m/s, 93° | - | - |
* Rain latest hour (hover to see other rain measurements)
** Current wind speed in m/s (hover to see current wind gust speed)